Regional Weather Roundup
Issued by NWS

Home | Current Version | Previous Version | Graphics & Text | Print | Product List | Glossary On
Versions: 1 2 3 4 5 6 7 8 9 10 11 12 13 14 15 16 17 18 19 20 21 22 23 24 25 26 27 28 29 30 31 32 33 34 35 36 37 38 39 40 41 42 43 44 45 46 47 48 49 50
000
ASUS43 KLOT 100708
RWRIL

ILLINOIS REGIONAL WEATHER ROUNDUP
NATIONAL WEATHER SERVICE CHICAGO/ROMEOVILLE IL
100 AM CST SAT DEC 10 2016

NOTE: "FAIR" INDICATES FEW OR NO CLOUDS BELOW 12,000 FEET WITH NO
SIGNIFICANT WEATHER AND/OR OBSTRUCTIONS TO VISIBILITY.

* THESE STATIONS ARE NOT UNDER NWS QUALITY CONTROL. THEY ALSO MAY NOT
  REPORT WEATHER SUCH AS PRECIPITATION OR FOG.

ILZ001-002-007-009-015-016-024-100800-
NORTHWEST ILLINOIS

CITY           SKY/WX    TMP DP  RH WIND       PRES   REMARKS
MOLINE         CLOUDY    21  14  74 SW3       30.54F
STERLING*      CLOUDY    19  14  81 W7        30.53F WCI  10
SAVANNA*       CLOUDY    19  13  77 W5        30.52F WCI  12
$$

ILZ003-004-008-010-011-017-018-100800-
NORTH CENTRAL ILLINOIS

CITY           SKY/WX    TMP DP  RH WIND       PRES   REMARKS
ROCKFORD       CLOUDY    18  12  77 W7        30.52F WCI   9
FREEPORT*      CLOUDY    17  12  83 W6        30.52R WCI   8
ROCHELLE*      CLOUDY    17  14  85 W7        30.51S WCI   8
DE KALB*       CLOUDY    18  13  80 W10       30.50S WCI   6
$$

ILZ005-006-012>014-019>023-100800-
NORTHEAST ILLINOIS

CITY           SKY/WX    TMP DP  RH WIND       PRES   REMARKS
CHICAGO-OHARE  CLOUDY    19  12  74 W10       30.50S WCI   7
CHICAGO-MIDWAY CLOUDY    21  11  65 W10       30.52S WCI  10
AURORA         CLOUDY    19  14  81 W6        30.52S WCI  11
LANSING*       CLOUDY    19  15  84 W7        30.52S WCI  10
JOLIET*        CLOUDY    21  15  76 NW3       30.53S
WAUKEGAN       CLOUDY    19  12  74 W5        30.48S WCI  12
DUPAGE AIRPORT CLOUDY    18  10  71 W7        30.50S WCI   9
KANKAKEE*      CLOUDY    23  15  70 W10       30.54R WCI  12
WHEELING       CLOUDY    19  12  74 W7        30.51F WCI  10
MORRIS*        CLOUDY    21  16  79 CALM      30.52S
ROMEOVILLE*    FLURRIES  19  16  87 NW7       30.52S WCI  10
NORTHERLY ISL    N/A     21  13  71 W8          N/A  WCI  12
$$

LMZ740>746-100800-
SOUTHERN LAKE MICHIGAN

STATION/POSITION SKY/WX   TEMP    WIND        PRES    VSBY  WAVE
                          AIR SEA DIR/SP/G                  HT/PER
                          (F)     (DEG/KT/KT) (MB)    (MI)  (FT/S)
BURNHAM HARBOR             21     280/  5/ 11   N/A
CALUMET HARBOR             20     240/  7/ 12 1032.3S
BURNS HARBOR               23     250/ 12/ 17 1032.8F
$$

ILZ025>027-034>036-040-047-049-050-058-095>099-100800-
WEST-CENTRAL ILLINOIS

CITY           SKY/WX    TMP DP  RH WIND       PRES   REMARKS
QUINCY         CLOUDY    22  17  81 S3        30.53F
GALESBURG*     CLOUDY    20  16  83 CALM      30.54S
MACOMB*        CLOUDY    21  17  81 W3        30.56S
JACKSONVILLE*  CLOUDY    22  16  78 SW3       30.55F
PITTSFIELD*    CLOUDY    23  17  79 CALM      30.56S
$$

ILZ028>032-037-038-041>044-048-051>054-059>061-100800-
CENTRAL ILLINOIS

CITY           SKY/WX    TMP DP  RH WIND       PRES   REMARKS
PONTIAC        CLOUDY    23  16  74 W10       30.54R WCI  12
BLOOMINGTON    CLOUDY    21  15  78 W9        30.52F WCI  11
DECATUR        CLOUDY    22  13  68 W3        30.55S
PEORIA         CLOUDY    21  14  74 NW3       30.54F
LACON*         CLOUDY    21  13  72 W5        30.54S WCI  14
LINCOLN*       CLOUDY    23  16  73 CALM      30.54F
SPRINGFIELD    CLOUDY    24  17  74 W5        30.55F WCI  18
TAYLORVILLE    CLOUDY    22  17  79 CALM      30.56S
$$

ILZ033-039-045-046-055>057-062-063-100800-
EAST-CENTRAL ILLINOIS

CITY           SKY/WX    TMP DP  RH WIND       PRES   REMARKS
CHAMPAIGN      CLOUDY    22  14  71 W6        30.54S WCI  14
RANTOUL*       MOCLDY    23  18  81 W7        30.54R WCI  15
MATTOON        CLOUDY    23  15  71 W5        30.55S WCI  17
PARIS*         CLOUDY    22  18  85 W5        30.56S WCI  16
$$

ILZ079-100>102-100800-
SOUTHWEST ILLINOIS

CITY           SKY/WX    TMP DP  RH WIND       PRES   REMARKS
ALTON          CLOUDY    22  17  82 CALM      30.57F
BELLEVILLE     PTCLDY    22  20  89 W1        30.58R
CAHOKIA*       CLOUDY    24  17  74 CALM      30.59S
SPARTA*        CLOUDY    22  16  76 CALM      30.59S
$$

ILZ064>066-069>071-074>076-080>082-084>086-088>090-092>094-100800-
SOUTH-CENTRAL ILLINOIS

CITY           SKY/WX    TMP DP  RH WIND       PRES   REMARKS
CARBONDALE     CLOUDY    18  16  92 CALM      30.59F
CAIRO*         CLEAR     18  16  91 CALM      30.60S
EFFINGHAM*     CLOUDY    23  19  85 CALM      30.58F
MARION         MOCLDY    19  18  93 CALM      30.60S
CENTRALIA*     CLOUDY    21  19  93 CALM      30.58R
SALEM*         CLOUDY    23  18  81 CALM      30.57F
METROPOLIS*    CLEAR     17  15  90 CALM      30.60F
$$

ILZ067-068-072-073-078-083-087-091-100800-
SOUTHEAST ILLINOIS

CITY           SKY/WX    TMP DP  RH WIND       PRES   REMARKS
LAWRENCEVILLE  CLOUDY    24  18  77 SW3       30.59S
FLORA*         CLOUDY    22  19  87 CALM      30.58F
FAIRFIELD*     MOCLDY    19  17  92 CALM      30.58S
HARRISBURG*    CLEAR     18  16  93 CALM      30.61S
ROBINSON*      CLOUDY    23  18  80 W5        30.60R WCI  17
CARMI*         PTCLDY    19  17  93 SW3       30.59S
$$

ABBREVIATIONS USED IN REMARKS
   TC - TEMPERATURE IN CELSIUS
  WCI - WIND CHILL INDEX
   HX - HEAT INDEX
  VSB - VISIBILITY
$$




USA.gov is the U.S. government's official web portal to all federal, state and local government web resources and services.